Location: Street
(51.1247°N, 2.7429°W)
Time: 04:01:22
(UTC+00:00)

Transit 2A Rocket - Pass Details

Date: 27 November 2020
Orbit: 592 x 911 km, 66.7° (Epoch: 16 January)

Event Time Altitude Azimuth Distance (km) Brightness Sun altitude
Exits shadow 03:22:24 16° 37° (NE) 2,026 7.6 -40.6°
Drops below altitude 10° 03:23:21 10° 37° (NE) 2,380 8.0 -40.4°
Sets 03:25:41 0° 38° (NE) 3,264 8.9 -40.1°
